Northeast Philadelphia, PA

10:12 PM EST on November 21, 2019 (GMT -0500)
Northeast Philadelphia

Weather History for KPNE - September, 2019

Change the Weather History Date:

Thursday, September 19, 2019

  Actual Average Record
Temperature  
Mean Temperature 62 °F -  
Max Temperature 73 °F 74 °F 86 °F (2005)
Min Temperature 50 °F 55 °F 48 °F (2004)
Degree Days  
Heating Degree Days 4    
Growing Degree Days 12 (Base 50)    
Moisture  
Dew Point 45 °F    
Average Humidity 57    
Maximum Humidity 77    
Minimum Humidity 31    
Precipitation  
Precipitation 0.00 in - - ()
Sea Level Pressure  
Sea Level Pressure 30.34 in    
Wind  
Wind Speed 4 mph ()    
Max Wind Speed 9 mph    
Max Gust Speed -    
Visibility 10.0 miles    
Events      
Averages and records for this station are not official NWS values.
T = Trace of Precipitation, MM = Missing Value Source: Averaged Metar Reports

Daily Weather History Graph

Daily Weather History Graph

Search for Another Location

Airport or City:

Astronomy

Sep. 19, 2019 Rise Set
Actual Time 6:44 AM EDT 7:02 PM EDT
Civil Twilight 6:17 AM EDT 7:29 PM EDT
Nautical Twilight 5:45 AM EDT 8:01 PM EDT
Astronomical Twilight 5:13 AM EDT 8:33 PM EDT
Moon 10:10 PM EDT (9/19) 11:45 AM EDT (9/19)
Length of Visible Light 13h 12m
Length of Day
12h 18m
Waning Gibbous, 74% of the Moon is Illuminated
Sep 19
Waning Gibbous
Sep 21
Last Quarter
Sep 28
New
Oct 5
First Quarter
Oct 13
Full

Hourly Weather History & Observations

Time (EDT) Temp. Dew Point Humidity Pressure Visibility Wind Dir Wind Speed Gust Speed Precip Events Conditions
12:54 AM 55.9 °F 46.0 °F 69% 30.32 in 10.0 mi NE 3.5 mph - N/A   Clear
1:54 AM 55.0 °F 46.0 °F 72% 30.32 in 10.0 mi NNE 5.8 mph - N/A   Clear
2:54 AM 54.0 °F 46.0 °F 75% 30.31 in 10.0 mi NNE 6.9 mph - N/A   Clear
3:54 AM 52.0 °F 45.0 °F 77% 30.33 in 10.0 mi NE 8.1 mph - N/A   Clear
4:54 AM 52.0 °F 44.1 °F 74% 30.34 in 10.0 mi NE 5.8 mph - N/A   Clear
5:54 AM 50.0 °F 42.1 °F 74% 30.34 in 10.0 mi NNE 4.6 mph - N/A   Clear
6:54 AM 50.0 °F 41.0 °F 71% 30.35 in 10.0 mi NNE 3.5 mph - N/A   Clear
7:54 AM 55.0 °F 45.0 °F 69% 30.36 in 10.0 mi NNE 6.9 mph - N/A   Clear
8:54 AM 59.0 °F 45.0 °F 60% 30.38 in 10.0 mi NNE 9.2 mph - N/A   Clear
9:54 AM 62.1 °F 45.0 °F 53% 30.39 in 10.0 mi NE 4.6 mph - N/A   Clear
10:54 AM 64.0 °F 45.0 °F 50% 30.39 in 10.0 mi Variable 3.5 mph - N/A   Clear
11:54 AM 66.0 °F 46.0 °F 48% 30.38 in 10.0 mi Variable 3.5 mph - N/A   Clear
12:54 PM 68.0 °F 43.0 °F 40% 30.36 in 10.0 mi NE 5.8 mph - N/A   Clear
1:54 PM 70.0 °F 42.1 °F 36% 30.34 in 10.0 mi Variable 3.5 mph - N/A   Clear
2:54 PM 71.1 °F 42.1 °F 35% 30.33 in 10.0 mi Calm Calm - N/A   Clear
3:54 PM 72.0 °F 42.1 °F 34% 30.32 in 10.0 mi East 4.6 mph - N/A   Clear
4:54 PM 72.0 °F 39.9 °F 31% 30.31 in 10.0 mi Calm Calm - N/A   Clear
5:54 PM 73.0 °F 41.0 °F 31% 30.31 in 10.0 mi Calm Calm - N/A   Clear
6:54 PM 66.9 °F 43.0 °F 42% 30.32 in 10.0 mi Calm Calm - N/A   Clear
7:54 PM 63.0 °F 45.0 °F 52% 30.31 in 10.0 mi Calm Calm - N/A   Clear
8:54 PM 60.1 °F 46.0 °F 60% 30.31 in 10.0 mi Calm Calm - N/A   Clear
9:54 PM 61.0 °F 50.0 °F 67% 30.31 in 10.0 mi Calm Calm - N/A   Clear
10:54 PM 60.1 °F 48.9 °F 67% 30.31 in 10.0 mi Calm Calm - N/A   Clear
11:54 PM 57.9 °F 48.9 °F 72% 30.31 in 10.0 mi Calm Calm - N/A   Clear